#timestamp,LO_Frequency,Hit,StdDev 
1666652415.7,286047002.5,N
1666652435.5,286047000.3,N
1666652455.4,286047000.0,N
1666652475.2,286047000.5,N
1666652495.0,286047000.4,N
1666652495.9,286047000.4,N
1666652515.8,286047000.2,N
1666652535.6,286047000.2,N
1666652555.4,286047002.6,N
1666652575.3,286046999.8,N
1666652595.1,286047002.8,N
1666652615.9,286047002.8,N
1666652635.7,286047002.6,N
1666652655.5,286047000.0,N
1666652675.4,286047000.7,N
1666652695.2,286046998.6,N
1666652715.0,286047000.4,N
1666652716.0,286047000.4,N
1666652735.8,286047001.2,N
1666652755.6,286046998.9,N
1666652775.5,286046998.6,N
1666652795.3,286047000.6,N
1666652815.1,286047000.0,N
1666652835.9,286046998.2,N
1666652855.7,286047001.2,N
1666652875.5,286046998.2,N
1666652895.4,286047001.2,N
1666652915.2,286047001.1,N
1666652935.1,286047000.6,N
1666652936.0,286047000.6,N
1666652955.8,286046998.2,N
1666652975.6,286047000.4,N
1666652995.5,286046998.7,N
1666653015.3,286047000.8,N
1666653035.1,286046998.3,N
1666653055.9,286046998.5,N
1666653075.7,286047000.6,N
1666653095.6,286047000.3,N
1666653115.4,286047002.4,N
1666653135.2,286047002.0,N
1666653155.1,286047001.6,N
1666653156.0,286047001.6,N
1666653175.8,286047002.1,N
1666653195.7,286047002.5,N
1666653215.5,286047001.9,N
1666653235.3,286047004.3,Y
1666653255.2,286047002.0,P
1666653275.0,286047001.9,N
1666653275.9,286047001.9,N
1666653295.7,286047001.9,N
1666653315.6,286047001.9,N
1666653335.4,286047001.9,Y
1666653355.3,286047001.2,P
1666653375.1,286046998.5,P
1666653376.0,286046998.5,N
1666653395.8,286046998.5,N
1666653415.7,286047001.1,N
1666653435.5,286046998.5,N
1666653455.3,286047000.5,N
1666653475.2,286047001.2,N
1666653495.0,286047000.7,N
1666653495.9,286047000.7,N
1666653515.8,286047000.8,N
1666653535.6,286046998.3,N
1666653555.4,286046995.4,Y
1666653575.3,286046995.3,P
1666653595.1,286046998.0,N
1666653615.9,286046999.1,N
1666653635.7,286046996.9,N
1666653655.5,286046999.3,N
1666653675.4,286046999.2,N
1666653695.2,286046997.4,N
1666653715.0,286046995.4,Y
1666653715.9,286046995.4,P
1666653735.8,286046998.6,N
1666653755.6,286047001.2,N
1666653775.5,286046998.7,N
1666653795.3,286047000.3,N
1666653815.1,286047000.0,N
1666653835.9,286047002.6,N
1666653855.7,286047002.5,N
1666653875.5,286047004.1,N
1666653895.4,286047003.8,N
1666653915.2,286047004.3,N
1666653935.1,286047002.3,N
1666653936.0,286047002.3,N
1666653955.8,286047002.2,N
1666653975.6,286047001.7,N
1666653995.5,286047003.1,N
1666654015.3,286047003.5,N
1666654035.1,286047001.6,N
1666654055.9,286047004.2,N
1666654075.7,286047004.3,N
1666654095.6,286047003.4,N
1666654115.4,286047003.7,N
1666654135.2,286047004.2,N
1666654155.1,286047003.6,N
1666654156.0,286047003.6,N
1666654175.8,286047003.3,N
1666654195.6,286047003.9,N
1666654215.5,286047003.7,N
1666654235.3,286047003.6,N
1666654255.2,286046999.8,N
1666654275.9,286047002.7,N
1666654295.7,286047002.4,N
1666654315.6,286047001.7,N
1666654335.4,286047002.6,N
1666654355.2,286047002.8,N
1666654375.1,286047002.4,N
1666654376.0,286047002.4,N
1666654395.8,286047004.4,Y
1666654415.7,286046998.3,P
1666654435.5,286046997.2,N
1666654455.3,286046993.3,N
1666654475.2,286046993.9,N
1666654495.0,286046996.2,N
1666654495.9,286046996.2,N
1666654515.8,286046998.0,N
1666654535.6,286046996.9,N
1666654555.4,286046998.4,N
1666654575.3,286046999.5,N
1666654595.1,286046998.1,N
1666654615.8,286046998.1,N
1666654635.7,286046998.1,N
1666654655.5,286047000.6,N
1666654675.4,286046998.2,N
1666654695.2,286046998.2,N
1666654715.0,286046998.9,N
1666654715.9,286046998.9,N
1666654735.8,286046998.5,N
1666654755.6,286046999.5,N
1666654775.4,286046998.3,N
1666654795.3,286047000.6,N
1666654815.1,286047000.9,N
1666654835.9,286047001.0,N
1666654855.7,286047000.8,N
1666654875.5,286047000.8,N
1666654895.4,286047000.9,N
1666654915.2,286047000.3,N
1666654935.0,286046998.9,N
1666654935.9,286046998.9,N
1666654955.8,286046998.1,N
1666654975.6,286046997.6,N
1666654995.5,286046997.4,N
1666655015.3,286046997.0,N
1666655035.1,286046999.4,N
1666655055.9,286046997.4,N
1666655075.7,286046997.2,N
1666655095.6,286046998.7,N
1666655115.4,286047000.0,N
1666655135.2,286047000.0,N
1666655155.1,286047002.4,N
1666655156.0,286047002.4,N
1666655175.8,286047001.8,N
1666655195.7,286047001.4,N
1666655215.5,286047001.4,N
1666655235.3,286047001.8,N
1666655255.2,286047002.7,N
1666655275.0,286046999.7,N
1666655275.9,286046999.7,N
1666655295.7,286047001.9,N
1666655315.6,286047004.2,N
1666655335.4,286047002.0,N
1666655355.3,286047000.0,N
1666655375.1,286047002.8,N
1666655376.0,286047002.8,N
1666655395.8,286047002.8,N
1666655415.7,286047000.1,N
1666655435.5,286047000.3,N
1666655455.4,286047001.0,N
1666655475.2,286047002.8,N
1666655495.0,286047001.0,N
1666655495.9,286047001.0,N
1666655515.8,286046999.8,N
1666655535.6,286047000.3,N
1666655555.4,286046998.3,N
1666655575.3,286046998.3,N
1666655595.1,286047000.6,N
1666655615.9,286047002.4,N
1666655635.7,286046999.8,N
1666655655.5,286047000.0,N
1666655675.4,286047001.9,N
1666655695.2,286047004.4,Y
1666655715.0,286047002.8,P
1666655716.0,286047002.8,P
1666655735.8,286047002.0,N
1666655755.6,286047002.2,Y
1666655775.5,286047000.3,P
1666655795.3,286047000.1,N
1666655815.1,286047000.6,N
1666655835.9,286046999.9,N
1666655855.7,286046998.5,N
1666655875.6,286046996.9,N
1666655895.4,286046997.2,N
1666655915.2,286046997.5,N
1666655935.1,286046994.9,Y
1666655936.0,286046994.9,P
1666655955.8,286046999.5,N
1666655975.6,286046996.5,N
1666655995.5,286046997.7,N
